Location: Aiyekoto
(8.4333°N, 4.3667°E)
Time: 23:31:22
(UTC+00:00)

OAO 2 Rocket - Pass Details

Date: 07 June 2020
Orbit: 676 x 746 km, 35.0° (Epoch: 10 July)

Event Time Altitude Azimuth Distance (km) Brightness Sun altitude
Exits shadow 04:41:14 12° 225° (SW) 1,997 5.1 -10.4°
Maximum altitude 04:45:49 67° 143° (SE) 729 3.5 -9.4°
Drops below altitude 10° 04:50:40 10° 61° (ENE) 2,095 7.5 -8.3°
Sets 04:53:03 0° 58° (ENE) 3,008 8.9 -7.7°
